[[{"header":{"parameterUnit":"m.s-1","parameterCategory":1,"la1":30.2991,"la2":30.254,"lo1":-89.0895,"lo2":-89.0444,"dy":0.0017,"dx":0.0017,"nx":28,"ny":28,"refTime":"2023-08-06T09:00:00:Z","depth":0,"parameterNumber":2,"parameterNumberName":"U-component_of_WINDS"},"data":[0,0,0,0,0,0,0,0,0,0,0,0,0,0,0,0,0,0,0,0,0,0,0,0,0,0,0,0,0,0,0,0,0,0,0,0,0,0,0,0,0,0,0,0,0,0,0,0,0,0,0,0,0,0,0,0,0,0,5.0065,5.0066,0,5.0137,5.0138,5.0138,5.0054,5.005,5.0047,5.0044,5.0116,5.0121,5.0126,0,0,0,0,0,0,0,0,0,0,0,0,0,4.9852,4.9856,5.0065,5.0066,5.0067,5.0137,5.0138,5.0139,5.0054,5.005,5.0046,5.0043,5.0114,5.012,5.0126,0,0,0,0,0,0,0,0,0,0,0,0,0,4.9936,4.9858,5.0065,5.0033,5.0031,5.0136,5.0138,5.0139,5.0055,5.005,5.0045,5.0041,5.0113,5.012,5.0127,5.0266,0,0,5.0149,5.0152,0,0,0,0,0,0,0,0,4.9931,4.9944,5.0037,5.0036,5.0033,5.0081,5.0089,5.0182,5.0056,5.0046,5.0044,5.0039,5.0108,5.0116,5.0139,5.027,5.0273,5.015,5.0154,5.0157,5.0159,0,0,0,0,0,0,0,4.9926,4.994,5.0093,5.0038,5.0036,5.0014,5.0021,5.0106,5.0103,5.0046,5.004,5.005,5.0106,5.0133,5.014,5.0274,5.0149,5.0156,5.016,5.0163,5.0517,5.0522,0,0,0,0,0,0,4.9924,4.9936,5.0091,5.0096,4.997,5.0022,5.0029,5.0071,5.0102,5.0102,5.0054,5.0046,5.0122,5.0132,5.0143,5.0304,5.0157,5.0164,5.0168,5.0512,5.0518,5.0524,0,0,0,0,0,0,4.992,4.9939,5.0088,5.0014,5.0032,5.0031,5.0078,5.0075,5.0101,5.0107,5.0106,5.0082,5.0119,5.0132,5.0235,5.0305,5.0167,5.0174,5.0506,5.0514,5.0521,5.0631,0,0,0,0,0,0,4.9914,4.9938,4.9992,5.0016,5.0036,5.0181,5.0082,5.0079,5.0114,5.0104,5.0133,5.0133,5.0116,5.0225,5.0242,5.0313,5.018,5.05,5.051,5.0519,5.0621,5.0641,5.0659,0,0,0,0,0,4.9907,5.002,4.9995,5.0014,5.0104,5.0185,5.0197,5.0175,5.012,5.0173,5.0177,5.0132,5.0296,5.0236,5.0255,5.0329,5.0495,5.0507,5.0518,5.0612,5.0637,5.0658,0,0,0,0,0,0,5.0004,5.0023,4.9995,5.012,5.0152,5.0171,5.0238,5.0203,5.0251,5.0239,5.0211,5.0218,5.0327,5.0339,5.0272,5.0463,5.0386,5.0402,5.0451,5.0475,5.0493,5.0487,5.0186,0,0,0,0,0,5.0041,5.0106,5.0119,5.0228,5.0245,5.0239,5.0274,5.0255,5.0286,5.0299,5.031,5.0342,5.0399,5.0438,5.0492,5.0623,5.0626,5.0683,5.0702,5.0717,5.073,5.0796,5.082,5.0561,5.0561,5.0561,0,0,5.0116,5.0134,5.0178,5.0248,5.027,5.0337,5.0251,5.0326,5.0375,5.031,5.0407,5.0417,5.0449,5.0565,5.0617,5.0579,5.0803,5.0732,5.0744,5.0748,5.081,5.0834,5.0856,5.0569,5.0567,5.0566,0,0,5.0286,5.0309,5.04,5.0423,5.0458,5.0452,5.0474,5.0499,5.0502,5.0599,5.055,5.0608,5.0709,5.0733,5.0759,5.0936,5.0895,5.0955,5.1052,5.1116,5.1137,5.1154,5.1214,5.1236,5.0968,5.0969,5.0969,0,5.0375,5.0475,5.0451,5.0529,5.056,5.0504,5.0595,5.0619,5.0669,5.0691,5.0648,5.0771,5.079,5.0909,5.0952,5.0976,5.0997,5.095,5.1136,5.1154,5.117,5.1226,5.1249,5.0975,5.0974,5.0974,5.0973,0,5.058,5.065,5.0719,5.0768,5.0807,5.0892,5.0879,5.0921,5.0898,5.0897,5.0994,5.1014,5.1069,5.1097,5.1076,5.1212,5.1187,5.1141,5.1061,5.1202,5.1253,5.1275,5.0985,5.0982,5.098,5.0979,0,0,5.0814,5.0847,5.0873,5.0892,5.0925,5.0978,5.1058,5.1112,5.1147,5.1184,5.1248,5.1334,5.129,5.1319,5.1301,5.1358,5.1491,5.1304,5.1304,5.1334,5.1638,5.1669,5.1695,5.1466,5.147,5.1473,5.1633,0,5.0981,5.112,5.11,5.1233,5.1295,5.1242,5.1312,5.1339,5.1339,5.1391,5.1391,5.1451,5.1391,5.1407,5.1462,5.1464,5.1551,5.1452,5.1522,5.1525,5.1512,5.1723,5.1758,5.1908,5.1654,5.1658,5.166,0,5.1195,5.1238,5.1377,5.1397,5.1422,5.1485,5.153,5.1582,5.161,5.1606,5.1637,5.1608,5.1685,5.1607,5.1712,5.1645,5.1673,5.1678,5.1683,5.1686,5.1599,5.1728,5.1956,5.1977,5.1693,5.169,5.1688,0,5.1346,5.1439,5.1533,5.1552,5.1579,5.1623,5.1637,5.166,5.1693,5.1733,5.1753,5.1802,5.1828,5.1866,5.1849,5.1795,5.1956,5.1878,5.1952,5.1953,5.1986,5.1984,5.2218,5.2011,5.201,5.201,5.2009,0,5.1533,5.1619,5.16,5.1658,5.1752,5.1728,5.1821,5.1828,5.1849,5.1905,5.1864,5.1917,5.1893,5.1945,5.1933,5.2019,5.2032,5.2029,5.2024,5.2031,5.2031,5.2046,5.2034,5.2016,5.2014,5.2013,5.2012,0,5.1717,5.1708,5.1806,5.1823,5.1829,5.1897,5.1911,5.1963,5.1961,5.2032,5.2048,5.2043,5.2101,5.2088,5.2153,5.2144,5.2251,5.2236,5.2242,5.2236,5.231,5.2302,5.256,5.2591,5.2367,5.2369,5.2371,0,5.1835,5.1899,5.1923,5.1957,5.1973,5.203,5.2062,5.2041,5.2076,5.2111,5.2159,5.2214,5.2255,5.235,5.2352,5.24,5.2382,5.2469,5.2389,5.2392,5.2378,5.2373,5.2377,5.2484,5.2486,5.2489,5.249,0,5.2044,5.2036,5.2084,5.2131,5.217,5.2206,5.2238,5.2268,5.2249,5.229,5.2348,5.2381,5.2445,5.2499,5.2543,5.2554,5.2518,5.2516,5.2535,5.254,5.254,5.2537,5.2281,5.2509,5.2507,5.2506,5.2505,5.2504,5.2195,5.2249,5.2272,5.2327,5.2348,5.2378,5.2427,5.243,5.2478,5.2529,5.2513,5.2579,5.2602,5.2657,5.2675,5.2724,5.2691,5.272,5.2727,5.2733,5.274,5.2535,5.2733,5.2732,5.2732,5.2731,5.2731,0,5.2399,5.2411,5.2461,5.2506,5.2548,5.2512,5.2544,5.2581,5.2639,5.2665,5.2706,5.2772,5.2823,5.2828,5.2875,5.2914,5.2898,5.2926,5.2921,5.2924,5.2769,5.2746,5.2938,5.2938,5.2938,5.2938,5.2938,5.2938,5.2509,5.2596,5.2591,5.2687,5.2698,5.2762,5.2783,5.2809,5.2829,5.2904,5.2945,5.2948,5.2965,5.3012,5.3056,5.3056,5.3074,5.3108,5.3101,5.2956,5.2935,5.2915,5.2893,5.3113,5.3113,5.3251,5.3253,5.3254]},{"header":{"parameterUnit":"m.s-1","parameterCategory":1,"la1":30.2991,"la2":30.254,"lo1":-89.0895,"lo2":-89.0444,"dy":0.0017,"dx":0.0017,"nx":28,"ny":28,"refTime":"2023-08-06T09:00:00:Z","depth":0,"parameterNumber":3,"parameterNumberName":"V-component_of_WINDS"},"data":[0,0,0,0,0,0,0,0,0,0,0,0,0,0,0,0,0,0,0,0,0,0,0,0,0,0,0,0,0,0,0,0,0,0,0,0,0,0,0,0,0,0,0,0,0,0,0,0,0,0,0,0,0,0,0,0,0,0,4.6295,4.6297,0,4.6406,4.6407,4.6408,4.6393,4.6391,4.6389,4.6387,4.6495,4.6499,4.6504,0,0,0,0,0,0,0,0,0,0,0,0,0,4.6065,4.607,4.6295,4.6297,4.6298,4.6405,4.6407,4.6408,4.6393,4.6391,4.6388,4.6386,4.6493,4.6499,4.6504,0,0,0,0,0,0,0,0,0,0,0,0,0,4.6169,4.6071,4.6295,4.6303,4.6305,4.6405,4.6407,4.6409,4.6393,4.6391,4.6388,4.6385,4.6491,4.6498,4.6505,4.6602,0,0,4.6526,4.6529,0,0,0,0,0,0,0,0,4.6163,4.6178,4.6301,4.6303,4.6305,4.6383,4.6365,4.6473,4.6394,4.636,4.6387,4.6384,4.6459,4.6469,4.6495,4.6607,4.6612,4.6526,4.6531,4.6534,4.6535,0,0,0,0,0,0,0,4.6156,4.6173,4.6339,4.6303,4.6305,4.63,4.6311,4.6386,4.6423,4.6363,4.6362,4.6375,4.646,4.6489,4.6498,4.6613,4.6526,4.6532,4.6537,4.6539,4.6807,4.681,0,0,0,0,0,0,4.6147,4.6167,4.6335,4.6342,4.6226,4.6306,4.6319,4.636,4.6423,4.6429,4.6377,4.6374,4.6478,4.649,4.6501,4.6618,4.6533,4.654,4.6544,4.6804,4.6808,4.6811,0,0,0,0,0,0,4.6143,4.6163,4.6331,4.6254,4.6275,4.6313,4.6359,4.6364,4.6393,4.6434,4.644,4.64,4.6477,4.6492,4.6577,4.6621,4.6543,4.6549,4.6801,4.6806,4.681,4.6852,0,0,0,0,0,0,4.6136,4.6161,4.62,4.6255,4.628,4.6407,4.6362,4.6368,4.6405,4.6402,4.6457,4.6463,4.6476,4.6567,4.6584,4.6629,4.6555,4.6797,4.6803,4.6808,4.6846,4.6857,4.6866,0,0,0,0,0,4.6128,4.6207,4.6202,4.6222,4.6329,4.6409,4.6423,4.6437,4.6409,4.6447,4.6473,4.6461,4.6614,4.6576,4.6595,4.6643,4.6794,4.6801,4.6808,4.6842,4.6855,4.6866,0,0,0,0,0,0,4.6154,4.6214,4.621,4.6309,4.6354,4.6407,4.6455,4.645,4.6503,4.6498,4.6511,4.6524,4.661,4.6635,4.6591,4.6739,4.67,4.6711,4.6719,4.6732,4.6742,4.6733,4.656,0,0,0,0,0,4.6172,4.6234,4.6282,4.6365,4.6388,4.6418,4.6453,4.646,4.6507,4.6525,4.6558,4.6602,4.6659,4.6697,4.6753,4.685,4.686,4.6892,4.6902,4.691,4.6919,4.697,4.6984,4.6834,4.6834,4.6833,0,0,4.6208,4.6248,4.6287,4.6371,4.6407,4.6469,4.6434,4.6501,4.6546,4.6535,4.6618,4.6643,4.6693,4.6784,4.6826,4.6808,4.6963,4.6919,4.6925,4.6929,4.6979,4.6993,4.7005,4.6838,4.6837,4.6837,0,0,4.6306,4.6344,4.6416,4.6453,4.6508,4.6527,4.6544,4.6598,4.6614,4.6698,4.669,4.6743,4.6842,4.6878,4.6909,4.7018,4.7009,4.7036,4.7087,4.7137,4.7148,4.7159,4.7197,4.721,4.7045,4.7045,4.7045,0,4.6344,4.6438,4.6453,4.6522,4.6558,4.6552,4.6624,4.6658,4.6728,4.6752,4.6731,4.6855,4.6888,4.6987,4.7013,4.7039,4.7057,4.7029,4.7146,4.7157,4.7167,4.7203,4.7217,4.7048,4.7047,4.7047,4.7047,0,4.6481,4.6547,4.6598,4.6667,4.6709,4.6779,4.6802,4.6843,4.6846,4.6866,4.695,4.699,4.7052,4.7076,4.7079,4.7175,4.7161,4.7143,4.7104,4.7184,4.7217,4.7231,4.7052,4.7051,4.705,4.7049,0,0,4.6599,4.6675,4.6693,4.6724,4.6784,4.6833,4.6901,4.6964,4.6998,4.7045,4.7101,4.7185,4.7168,4.7203,4.721,4.7254,4.7336,4.723,4.7231,4.7247,4.7442,4.7455,4.747,4.7331,4.7333,4.7335,4.7437,0,4.6701,4.6824,4.6839,4.6947,4.7006,4.7001,4.706,4.7101,4.7122,4.7174,4.7196,4.7255,4.7229,4.7249,4.7293,4.7317,4.7375,4.731,4.7381,4.7383,4.7368,4.7488,4.7503,4.7597,4.7451,4.7453,4.7455,0,4.6838,4.6891,4.7005,4.7055,4.7081,4.7134,4.7191,4.7242,4.7288,4.7299,4.7338,4.7339,4.7407,4.7366,4.7458,4.7414,4.7443,4.7459,4.7463,4.747,4.7423,4.7497,4.7627,4.7641,4.7476,4.7474,4.7473,0,4.691,4.701,4.7091,4.7117,4.7178,4.7215,4.7242,4.7286,4.7322,4.7371,4.7394,4.7451,4.7481,4.7524,4.7539,4.7508,4.763,4.7591,4.764,4.764,4.7665,4.7663,4.7801,4.7686,4.7686,4.7686,4.7685,0,4.7023,4.7092,4.7124,4.7174,4.7251,4.7266,4.7341,4.7366,4.7405,4.7457,4.7456,4.7505,4.7522,4.7573,4.7585,4.7659,4.7673,4.7683,4.7685,4.7683,4.7681,4.7701,4.7695,4.769,4.7689,4.7688,4.7687,0,4.7116,4.7141,4.7228,4.7279,4.7293,4.7348,4.739,4.7437,4.7456,4.7523,4.7539,4.757,4.763,4.7649,4.7721,4.7729,4.7815,4.7812,4.78,4.78,4.7847,4.7842,4.8002,4.8023,4.7896,4.7897,4.7898,0,4.7186,4.724,4.7296,4.7332,4.7361,4.7419,4.7455,4.7472,4.751,4.7566,4.7605,4.7665,4.7714,4.781,4.7837,4.7892,4.7889,4.7942,4.7897,4.7893,4.7888,4.7885,4.7889,4.795,4.7951,4.7952,4.7953,0,4.7307,4.7316,4.737,4.7429,4.7473,4.7519,4.7564,4.7593,4.7615,4.7658,4.772,4.7758,4.7832,4.7891,4.7946,4.7971,4.7965,4.7967,4.7981,4.7978,4.7969,4.7973,4.7821,4.7963,4.7962,4.7961,4.796,4.796,4.739,4.7436,4.7483,4.7543,4.7579,4.762,4.7666,4.7692,4.7745,4.7807,4.7813,4.788,4.7922,4.7997,4.8025,4.8075,4.806,4.8081,4.8086,4.8091,4.8094,4.7962,4.8086,4.8085,4.8085,4.8085,4.8085,0,4.7509,4.7538,4.7594,4.7657,4.7703,4.7695,4.7744,4.7782,4.7842,4.7883,4.7931,4.8002,4.8058,4.809,4.8146,4.818,4.8179,4.8194,4.8191,4.8197,4.8105,4.8087,4.8194,4.8194,4.8194,4.8194,4.8194,4.8194,4.7576,4.7654,4.7669,4.7764,4.7792,4.7859,4.7887,4.7924,4.7957,4.8037,4.8084,4.8105,4.8142,4.82,4.8251,4.8259,4.8279,4.8296,4.8301,4.8215,4.8203,4.8193,4.8175,4.83,4.83,4.8389,4.839,4.839]}]]